Home > Time Zones > World Clock > Weather > Mexico > Leon > Past weeks

Flag for Mexico Weather past 2 weeks in Leon, Guanajuato, Mexico

Now
63 °F

Mostly cloudy.


Feels Like: 63 °F
Forecast: 51 / 75 °F
Wind: No wind

Location: Del Bajio / Leon

Current Time: Aug 20, 2014 at 4:35:50 AM

Latest Report: Aug 20, 2014 at 3:46 AM


Visibility: 6 mi

Pressure: 29.90 "Hg

Humidity: 94%

Dew point: 61 °F

Location of LeonLocation

Historic Weather in Leon — Graph

°F

Leon temperature yesterday

Maximum temperature yesterday: 75 °F (at 4:55 PM)
Minimum temperature yesterday: 57 °F (at 3:50 AM)
Average temperature yesterday: 65 °F

Past Weeks' High & Low Weather Summary

 TemperatureHumidityPressure
High81 °F (Aug 13, 5:46 PM)100% (Aug 8, 6:45 AM)30.39 "Hg (Aug 8, 6:45 AM)
Low54 °F (Aug 14, 6:46 AM)27% (Aug 17, 6:55 PM)29.78 "Hg (Aug 19, 6:55 PM)
Average66 °F74%30.18 "Hg
* Reported Aug 5 3:50 AM — Aug 20 2:46 AM, Leon, Weather by CustomWeather, © 2014

Note: Actual official high and low records may vary slightly from our data, if they occured in-between our weather recording intervals... More about our weather records

Advertising

Leon weather history for previous 24 hours

 ConditionsComfort  
Time TempWeatherWind HumidityBarometerVisibility
2:46 AM
Aug 20
63 °FOvercast.No wind94%30.28 "Hg8 mi
12:45 AM63 °FOvercast.No wind94%29.90 "Hg8 mi
11:45 PM
Aug 19
63 °FOvercast.No wind83%30.29 "Hg8 mi
10:48 PM64 °FOvercast.3 mph78%30.28 "Hg8 mi
9:47 PM63 °FLight rain. Overcast.No wind88%29.88 "Hg6 mi
7:45 PM72 °FPartly sunny.6 mph61%30.18 "Hg10 mi
6:55 PM75 °FScattered clouds.3 mph47%29.78 "Hg10 mi
4:55 PM75 °FBroken clouds.6 mph57%30.19 "Hg9 mi
3:54 PM70 °FPartly sunny.6 mph69%29.85 "Hg9 mi
2:48 PM72 °FPartly sunny.3 mph61%30.26 "Hg8 mi
12:46 PM70 °FPartly sunny.No wind69%29.95 "Hg5 mi
11:50 AM70 °FPartly sunny.5 mph60%30.33 "Hg5 mi
10:47 AM66 °FPartly sunny.3 mph73%30.33 "Hg5 mi
9:48 AM64 °FPartly sunny.2 mph78%29.99 "Hg5 mi
8:47 AM61 °FBroken clouds.3 mph88%30.31 "Hg7 mi
7:45 AM57 °FPartly cloudy.No wind94%30.30 "Hg6 mi
6:50 AM57 °FPartly cloudy.No wind94%29.94 "Hg5 mi
5:50 AM57 °FPassing clouds.No wind100%30.28 "Hg7 mi
4:50 AM59 °FOvercast.No wind94%30.27 "Hg7 mi
Weather by CustomWeather, © 2014

See weather overviewHow to use our weather pages